Wind_Speed
18 18 18 18 18 19 20 21 21 20 19 20 19 19 19 20 20 20 20 20 20 20 20 20 21 22 22 22 23 24 24 23 23 22 22 22 22 22 23 23 23 22 22
19 19 18 19 19 20 20 21 21 20 20 20 20 20 20 20 21 21 21 21 21 22 22 22 23 24 24 24 24 24 24 24 24 23 22 22 22 23 23 23 22 22 23
19 19 19 19 20 20 20 20 20 19 19 20 20 20 20 21 21 22 22 22 22 22 23 24 25 25 25 25 25 25 25 25 24 23 23 23 23 23 23 23 23 24 24
20 20 20 19 19 20 19 18 19 19 20 20 21 21 21 22 22 23 23 23 23 24 24 25 26 26 26 26 26 26 25 25 24 23 23 24 24 24 23 23 24 24 24
21 21 20 19 18 18 18 19 20 20 20 21 21 22 22 22 23 23 24 24 24 25 25 25 26 27 26 26 26 25 25 24 24 24 24 24 24 24 24 24 24 24 25
20 19 19 19 19 19 19 20 21 21 21 22 22 23 23 23 24 24 25 24 25 25 26 26 27 26 26 26 26 25 24 25 26 25 25 24 24 25 24 24 24 25 25
19 19 19 20 20 20 21 21 21 21 22 22 23 24 24 24 25 25 24 25 25 26 26 27 26 26 25 25 25 24 25 25 26 25 25 25 26 26 26 25 25 25 25
19 20 20 20 21 21 21 21 22 22 23 23 24 24 24 24 23 23 24 25 25 26 26 26 26 26 26 26 24 25 25 26 26 26 25 25 26 26 26 26 26 26 26
21 21 22 22 22 22 23 23 23 24 24 24 24 24 24 24 24 24 25 25 25 25 25 26 26 26 25 25 25 25 25 25 25 25 25 25 26 26 26 26 26 27 26
21 22 22 23 23 23 24 24 23 23 23 23 23 24 23 23 24 25 25 25 25 25 25 26 26 26 25 26 26 26 25 25 25 25 25 25 26 26 26 26 26 26 26
22 23 23 24 24 24 24 24 23 24 24 24 24 24 24 24 24 24 24 25 25 25 25 25 25 25 25 25 26 26 26 25 26 26 26 26 26 26 26 26 26 26 26
22 23 23 23 23 23 23 24 24 24 25 25 24 24 24 24 24 24 24 24 24 24 24 24 24 25 25 25 25 25 25 25 25 26 26 26 26 26 26 26 26 26 26
22 23 24 23 23 23 24 24 24 25 25 25 25 25 24 23 23 24 25 24 24 24 24 24 24 24 24 25 25 25 25 25 25 25 25 25 26 25 25 26 26 26 25
23 23 23 24 24 24 24 24 24 25 25 25 25 24 24 23 23 24 24 24 24 24 24 24 24 23 23 24 24 24 24 24 24 24 24 25 25 24 24 25 24 24 24
23 23 23 24 24 23 23 24 24 24 23 23 23 23 23 23 22 22 23 23 23 23 23 22 23 22 23 23 22 22 22 22 22 22 23 22 22 22 22 22 22 22 21
23 23 23 23 23 23 23 23 23 22 22 22 23 22 22 22 22 21 21 21 21 21 21 21 21 20 20 20 20 20 19 19 19 20 20 20 20 19 20 20 20 19 19
23 23 22 22 23 23 23 23 23 23 22 22 22 22 22 22 21 21 21 21 21 20 20 19 19 19 19 20 19 18 17 17 18 17 17 18 18 18 18 18 18 17 16
22 22 22 22 22 22 22 22 22 22 22 22 22 22 22 21 20 20 20 20 19 19 19 18 18 18 18 18 18 17 16 16 16 16 16 16 17 17 18 17 16 15 15
22 22 23 22 22 21 21 21 21 21 22 21 21 21 20 20 19 18 18 18 18 18 17 17 17 16 16 16 16 15 15 15 16 16 16 16 16 16 16 15 14 14 14
22 21 21 21 20 19 19 19 19 19 19 19 19 19 19 19 19 19 19 18 18 17 17 17 17 16 16 16 16 15 15 15 15 16 16 16 15 15 14 14 14 13 13
21 19 19 20 20 19 18 18 17 17 17 17 17 17 18 18 19 19 19 19 19 17 17 17 17 16 16 16 16 15 15 16 16 16 16 15 14 15 14 14 14 14 14
20 19 19 19 19 19 18 18 17 17 16 16 16 16 17 18 18 18 18 17 18 17 17 16 17 16 16 16 16 15 16 16 16 16 15 15 14 14 14 14 14 14 14
20 20 20 20 20 19 19 19 18 18 17 17 17 17 18 18 18 18 18 17 17 18 18 17 17 17 16 16 15 15 16 16 15 14 14 14 14 14 14 13 13 13 13
21 21 21 21 20 19 19 19 19 18 18 18 17 18 18 18 18 18 18 18 18 17 17 17 17 17 17 16 16 16 15 15 14 14 14 14 14 15 15 15 14 14 14
22 21 20 20 20 19 19 19 19 19 18 18 18 17 18 18 18 19 19 18 18 18 18 17 17 17 17 17 17 16 16 15 15 15 15 15 15 15 15 15 15 15 15
21 20 20 19 20 20 19 19 19 19 18 18 18 18 18 19 19 19 18 18 18 18 18 18 17 17 17 17 17 17 17 17 17 17 16 16 15 15 15 15 15 16 16
Wind_Direction
272 270 269 268 268 268 270 270 271 273 272 270 268 268 267 269 269 269 270 270 270 272 271 272 274 276 277 279 280 281 282 284 286 288 287 287 286 284 285 284 279 278 276
271 271 271 272 272 271 270 270 270 271 269 268 269 268 268 269 269 270 270 271 270 270 271 272 275 276 277 278 280 282 281 282 285 286 287 287 287 286 285 283 281 277 275
271 270 271 273 274 271 270 270 271 271 270 270 270 269 269 271 272 273 272 270 269 270 272 273 274 275 276 278 280 281 281 282 283 284 284 285 287 287 287 285 282 278 276
268 269 271 273 272 271 271 270 270 271 272 271 270 269 270 271 272 273 272 271 270 271 273 273 274 276 276 277 278 279 280 281 282 283 283 285 287 287 287 285 284 282 280
268 268 270 271 272 272 272 271 270 271 273 274 272 269 269 271 273 273 273 273 273 274 275 275 276 276 277 277 277 278 279 279 280 282 282 283 285 287 287 286 284 283 282
267 267 269 270 270 271 271 271 272 272 273 274 273 271 269 271 274 275 276 276 275 276 276 276 277 277 276 277 276 278 279 280 281 282 281 282 285 286 287 287 286 284 283
267 268 269 270 271 272 272 272 274 274 274 276 275 273 272 274 275 275 275 276 278 278 278 277 277 277 276 276 276 277 279 281 281 282 283 284 285 285 286 286 286 286 285
266 268 270 271 271 272 273 273 274 273 274 276 277 276 276 277 277 277 277 277 279 280 278 278 278 277 275 274 275 276 278 280 280 280 282 284 285 284 284 284 285 285 285
268 268 270 271 272 273 274 274 274 274 275 276 278 277 276 276 276 279 279 279 279 279 279 278 276 276 276 275 276 277 278 279 280 281 282 283 284 284 284 284 286 286 285
271 272 273 273 273 275 275 274 274 274 276 276 278 277 275 275 277 278 278 279 279 278 278 278 277 279 279 278 277 277 278 279 280 281 281 283 283 283 284 284 285 286 286
271 273 275 274 274 274 274 275 275 275 275 276 277 276 276 276 278 280 279 280 280 279 279 279 278 279 280 279 279 278 278 279 280 280 281 283 283 284 284 283 285 287 287
272 274 276 275 274 275 274 273 273 275 275 276 277 278 277 278 278 280 281 282 282 280 279 280 280 279 279 280 280 280 279 280 280 280 281 282 284 284 284 283 284 286 288
274 275 274 274 274 274 274 272 272 274 276 276 275 277 277 278 278 280 282 282 281 280 280 281 282 282 280 279 279 278 278 279 281 281 281 281 283 284 285 285 285 286 287
274 274 274 275 274 273 273 273 272 273 274 276 276 277 277 276 279 281 281 281 281 281 281 280 280 280 281 281 280 279 279 279 280 280 282 282 282 282 284 285 285 285 285
272 273 275 275 276 277 275 273 274 274 273 274 276 276 278 279 280 280 281 282 282 282 281 281 282 281 280 280 281 281 280 281 282 282 283 283 282 282 284 285 285 286 286
270 271 273 275 275 276 275 274 274 273 273 274 275 277 278 279 280 280 281 282 283 283 283 283 283 282 282 282 284 283 281 282 284 285 284 283 283 284 286 288 287 287 288
272 272 272 274 275 274 274 273 272 270 271 273 274 275 276 278 278 277 278 279 280 281 283 283 281 280 282 284 284 283 281 283 284 285 285 285 285 287 290 291 289 287 288
271 271 271 274 275 273 273 273 271 269 270 271 273 274 274 276 276 277 277 279 279 280 282 282 281 281 282 284 283 281 279 281 281 283 286 286 286 289 292 291 288 287 287
269 271 272 273 273 274 275 273 272 271 271 271 272 273 273 274 276 277 276 277 277 279 280 281 282 282 283 285 283 279 278 279 279 282 284 285 285 288 291 292 289 286 286
270 270 270 270 271 273 274 272 271 272 272 274 274 271 271 272 275 277 278 278 278 279 279 279 281 281 282 283 282 278 277 279 280 280 282 282 282 284 288 291 292 290 289
269 269 269 268 268 269 269 269 270 271 273 275 276 273 272 272 275 277 276 277 278 279 278 277 278 278 278 279 279 277 278 279 278 278 279 279 280 282 286 289 293 294 293
268 267 267 268 268 267 267 266 266 267 271 273 276 277 277 275 277 279 277 276 275 275 275 275 275 275 277 277 276 275 278 279 277 275 275 276 278 281 284 288 292 296 294
266 266 266 267 267 267 266 264 265 267 269 271 271 274 278 278 277 277 278 277 277 277 276 275 274 275 277 277 274 274 276 276 275 277 277 274 273 276 280 284 289 293 293
267 267 265 265 264 265 265 263 264 268 270 271 272 272 274 276 276 276 276 277 277 275 275 274 274 273 271 271 271 273 275 272 272 275 276 274 272 273 275 278 285 288 289
266 266 266 265 264 264 264 262 263 267 269 269 271 272 273 275 276 276 276 275 273 272 272 273 273 272 271 269 266 266 270 272 272 272 274 274 273 275 275 277 282 286 286
264 264 265 264 263 263 262 261 262 265 267 269 270 272 275 275 277 279 275 271 270 270 269 269 269 269 270 270 269 269 271 274 274 272 271 271 271 272 273 276 280 284 285
Height
5795 5795 5796 5796 5797 5798 5799 5799 5800 5800 5801 5801 5801 5802 5803 5804 5805 5805 5805 5805 5805 5806 5806 5806 5806 5805 5805 5804 5804 5803 5803 5802 5802 5801 5800 5799 5798 5797 5797 5796 5795 5795 5794
5791 5791 5791 5792 5793 5794 5794 5795 5795 5796 5796 5796 5797 5797 5798 5799 5799 5799 5799 5800 5800 5800 5800 5800 5800 5799 5799 5798 5798 5797 5797 5796 5796 5795 5794 5793 5792 5791 5791 5790 5789 5788 5788
5786 5786 5786 5787 5788 5789 5789 5790 5790 5791 5791 5791 5791 5792 5792 5792 5793 5793 5793 5794 5794 5794 5794 5794 5794 5793 5793 5792 5792 5791 5790 5790 5789 5789 5788 5787 5786 5785 5784 5783 5782 5782 5781
5781 5782 5782 5782 5783 5784 5784 5785 5785 5786 5786 5786 5786 5786 5786 5786 5787 5787 5787 5787 5787 5787 5787 5787 5787 5786 5786 5785 5785 5784 5784 5783 5782 5782 5782 5781 5780 5779 5778 5777 5776 5775 5774
5776 5777 5777 5778 5778 5779 5779 5780 5780 5781 5781 5780 5780 5780 5780 5780 5780 5780 5780 5780 5780 5780 5780 5780 5779 5779 5778 5778 5778 5777 5777 5776 5776 5776 5775 5774 5773 5772 5771 5770 5769 5768 5767
5771 5772 5773 5773 5774 5774 5774 5775 5775 5775 5775 5774 5774 5774 5774 5774 5774 5773 5773 5773 5773 5773 5773 5773 5772 5771 5771 5771 5770 5770 5770 5769 5769 5768 5768 5767 5766 5765 5764 5763 5762 5761 5760
5766 5767 5767 5768 5768 5768 5769 5769 5769 5769 5769 5768 5768 5767 5767 5767 5767 5766 5766 5766 5766 5766 5765 5765 5764 5764 5764 5763 5763 5763 5762 5762 5761 5761 5760 5760 5759 5758 5756 5756 5754 5753 5753
5761 5761 5762 5762 5762 5763 5763 5763 5763 5763 5762 5762 5761 5761 5760 5760 5760 5760 5759 5759 5759 5758 5758 5757 5757 5756 5756 5756 5755 5755 5755 5754 5754 5753 5753 5752 5751 5750 5749 5748 5747 5746 5745
5755 5756 5756 5756 5756 5756 5756 5756 5756 5756 5755 5755 5754 5754 5753 5754 5753 5753 5752 5752 5751 5751 5750 5750 5749 5749 5748 5748 5748 5748 5747 5747 5746 5746 5745 5744 5743 5742 5741 5740 5739 5738 5738
5749 5750 5750 5750 5750 5749 5749 5749 5748 5748 5748 5748 5747 5747 5746 5746 5746 5746 5745 5744 5744 5743 5743 5742 5742 5741 5740 5740 5740 5740 5740 5739 5739 5738 5738 5737 5736 5735 5734 5732 5731 5730 5729
5743 5743 5743 5742 5742 5742 5741 5741 5741 5741 5741 5741 5740 5740 5739 5739 5739 5738 5737 5736 5736 5735 5735 5734 5734 5733 5733 5732 5732 5731 5731 5731 5730 5730 5730 5729 5728 5727 5726 5725 5724 5723 5722
5736 5736 5735 5735 5735 5734 5734 5734 5734 5734 5734 5733 5733 5732 5732 5731 5731 5730 5730 5729 5728 5727 5727 5726 5726 5725 5725 5724 5724 5724 5723 5723 5722 5722 5721 5721 5720 5719 5718 5717 5716 5715 5714
5729 5729 5728 5728 5728 5727 5727 5727 5727 5727 5726 5726 5725 5725 5725 5724 5724 5723 5722 5721 5720 5720 5719 5719 5718 5718 5717 5717 5716 5715 5715 5715 5714 5713 5713 5713 5712 5711 5710 5709 5708 5707 5706
5722 5722 5721 5721 5721 5720 5720 5720 5720 5719 5719 5718 5718 5718 5717 5717 5717 5716 5714 5714 5713 5712 5711 5710 5710 5710 5709 5708 5708 5707 5707 5706 5706 5706 5705 5705 5704 5703 5703 5702 5701 5700 5699
5715 5714 5714 5714 5713 5713 5712 5712 5712 5712 5711 5711 5711 5711 5711 5710 5709 5708 5707 5706 5705 5704 5703 5703 5702 5702 5701 5701 5700 5699 5699 5699 5698 5698 5697 5697 5697 5696 5695 5694 5694 5693 5692
5707 5707 5707 5706 5706 5706 5705 5705 5705 5705 5705 5704 5704 5704 5703 5703 5702 5701 5700 5699 5698 5697 5696 5696 5695 5695 5694 5694 5693 5693 5693 5692 5692 5691 5691 5691 5690 5690 5689 5689 5688 5687 5686
5700 5700 5700 5699 5699 5698 5698 5698 5698 5698 5698 5698 5697 5697 5696 5696 5695 5695 5694 5693 5692 5691 5690 5690 5689 5688 5688 5687 5687 5687 5687 5687 5686 5686 5685 5685 5685 5684 5684 5683 5682 5682 5681
5692 5692 5692 5692 5692 5691 5691 5691 5691 5691 5691 5691 5691 5690 5689 5689 5689 5688 5687 5687 5686 5685 5684 5684 5683 5682 5682 5681 5681 5681 5681 5681 5681 5681 5681 5680 5680 5679 5679 5678 5677 5677 5676
5685 5685 5684 5685 5684 5684 5684 5684 5684 5684 5684 5684 5684 5684 5683 5683 5682 5682 5681 5681 5680 5680 5679 5678 5677 5677 5676 5676 5676 5676 5676 5676 5676 5676 5676 5676 5675 5675 5674 5673 5673 5672 5671
5677 5677 5677 5677 5677 5677 5677 5677 5677 5677 5677 5677 5677 5677 5676 5677 5677 5676 5675 5675 5675 5674 5673 5673 5672 5672 5672 5672 5671 5671 5672 5672 5672 5671 5671 5671 5671 5670 5670 5669 5669 5668 5668
5670 5670 5670 5670 5670 5671 5671 5671 5671 5671 5671 5671 5671 5670 5670 5670 5670 5670 5669 5669 5668 5668 5667 5667 5667 5667 5667 5667 5667 5667 5667 5667 5667 5667 5666 5666 5666 5666 5666 5665 5665 5664 5663
5663 5663 5663 5664 5664 5664 5665 5665 5665 5666 5666 5665 5665 5665 5665 5664 5664 5664 5663 5663 5662 5662 5662 5662 5662 5662 5662 5661 5661 5661 5662 5662 5662 5662 5662 5662 5661 5661 5661 5661 5660 5660 5659
5657 5657 5657 5658 5658 5658 5659 5659 5659 5660 5660 5660 5660 5660 5659 5659 5659 5659 5658 5657 5657 5656 5656 5656 5656 5656 5656 5656 5656 5656 5656 5657 5657 5657 5657 5657 5657 5657 5657 5656 5656 5656 5655
5650 5650 5650 5651 5651 5652 5652 5653 5653 5654 5654 5654 5654 5654 5654 5653 5653 5653 5652 5652 5652 5651 5651 5650 5650 5650 5651 5651 5651 5651 5651 5651 5652 5652 5652 5652 5652 5652 5652 5652 5652 5651 5651
5643 5643 5644 5644 5645 5646 5646 5647 5647 5648 5648 5648 5649 5648 5648 5648 5647 5647 5646 5646 5646 5645 5645 5645 5645 5645 5645 5645 5645 5645 5646 5646 5646 5647 5647 5647 5647 5647 5647 5647 5647 5646 5646
5636 5637 5638 5638 5639 5639 5640 5640 5641 5641 5642 5642 5643 5643 5642 5642 5642 5641 5640 5640 5640 5640 5640 5639 5639 5639 5639 5639 5640 5640 5640 5641 5641 5641 5642 5642 5642 5642 5642 5642 5642 5641 5641